Home > Weather > Gdynia > Past weeks

Flag for Poland Past Weather in Gdynia, Poland — Yesterday and Last 2 Weeks

Now
72 °F

Passing clouds.


Feels Like: 77 °F
Forecast: 56 / 71 °F
Wind: 9 mph from West

Location: Gdansk-Rebiechowo

Current Time: Jun 27, 2016 at 3:17:36 PM

Latest Report: Jun 27, 2016 at 2:30 PM


Visibility: N/A

Pressure: 30.01 "Hg

Humidity: 50%

Dew Point: 52 °F

Location of GdyniaLocation

Past Weather in Gdynia — Graph

°F

Gdynia Temperature Yesterday

Maximum temperature yesterday: 77 °F (at 12:00 PM)
Minimum temperature yesterday: 61 °F (at 10:00 PM)
Average temperature yesterday: 67 °F

High & Low Weather Summary for the Past Weeks

 TemperatureHumidityPressure
High88 °F (Jun 24, 3:30 PM)100% (Jun 16, 4:30 AM)30.30 "Hg (Jun 16, 4:30 AM)
Low48 °F (Jun 13, 12:30 AM)42% (Jun 23, 2:00 PM)29.30 "Hg (Jun 17, 5:00 PM)
Average64 °F75%29.91 "Hg
* Reported Jun 12 2:00 PM — Jun 27 2:00 PM, Gdynia, Weather by CustomWeather, © 2016

Note: Actual official high and low records may vary slightly from our data, if they occured in-between our weather recording intervals... More about our weather records

Advertising

Gdynia Weather History for the Previous 24 Hours

Scroll right to see more
 ConditionsComfort  
Time TempWeatherWind HumidityBarometerVisibility
2:00 PM
Mon, Jun 27
72 °FPassing clouds.10 mph47%30.01 "HgN/A
1:30 PM72 °FPassing clouds.9 mph47%30.01 "HgN/A
1:00 PM72 °FScattered clouds.8 mph50%30.01 "HgN/A
12:30 PM72 °FScattered clouds.10 mph47%30.01 "HgN/A
12:00 PM70 °FScattered clouds.5 mph53%30.01 "HgN/A
11:30 AM70 °FPassing clouds.3 mph53%30.01 "HgN/A
11:00 AM70 °FScattered clouds.9 mph53%30.01 "HgN/A
10:30 AM68 °FScattered clouds.7 mph56%30.01 "HgN/A
10:00 AM68 °FPassing clouds.7 mph56%30.01 "HgN/A
9:30 AM66 °FPassing clouds.9 mph56%30.01 "HgN/A
9:00 AM66 °FPassing clouds.8 mph56%30.01 "HgN/A
8:30 AM66 °FSunny.10 mph56%30.01 "Hg10 mi
8:00 AM64 °FPassing clouds.10 mph60%30.01 "HgN/A
7:30 AM63 °FSunny.9 mph64%30.01 "Hg10 mi
7:00 AM61 °FSunny.7 mph72%30.01 "Hg10 mi
6:30 AM59 °FSunny.6 mph77%30.01 "Hg10 mi
6:00 AM57 °FSunny.3 mph88%30.01 "Hg10 mi
5:30 AM55 °FPassing clouds.5 mph88%30.01 "HgN/A
5:00 AM55 °FClear.6 mph88%30.01 "Hg10 mi
4:30 AM55 °FClear.5 mph88%30.01 "Hg10 mi
4:00 AM55 °FClear.5 mph88%30.01 "Hg10 mi
3:30 AM57 °FClear.3 mph88%30.01 "Hg10 mi
3:00 AM57 °FClear.2 mph88%30.01 "Hg10 mi
2:30 AM59 °FClear.6 mph82%29.98 "Hg10 mi
2:00 AM59 °FClear.6 mph82%29.98 "Hg10 mi
1:30 AM59 °FClear.6 mph82%29.98 "Hg10 mi
1:00 AM59 °FClear.8 mph82%29.98 "Hg10 mi
12:30 AM61 °FClear.9 mph77%29.98 "Hg10 mi
12:00 AM61 °FClear.9 mph77%29.98 "Hg10 mi
11:30 PM
Sun, Jun 26
61 °FClear.9 mph77%29.98 "Hg10 mi
11:00 PM61 °FClear.7 mph77%29.98 "Hg10 mi
10:30 PM61 °FPassing clouds.9 mph77%29.98 "HgN/A
10:00 PM61 °FPartly sunny.6 mph83%30.01 "HgN/A
9:30 PM63 °FLight rain. Partly sunny.8 mph77%30.01 "HgN/A
9:00 PM63 °FPartly sunny.12 mph73%29.98 "HgN/A
8:30 PM63 °FPartly sunny.12 mph77%29.98 "HgN/A
8:00 PM63 °FPartly sunny.13 mph77%29.98 "HgN/A
7:30 PM63 °FPartly sunny.15 mph73%29.98 "HgN/A
7:00 PM63 °FPartly sunny.17 mph77%29.95 "HgN/A
6:30 PM63 °FPartly sunny.17 mph77%29.95 "HgN/A
6:00 PM64 °FPartly sunny.20 mph78%29.95 "HgN/A
5:30 PM64 °FPartly sunny.20 mph78%29.95 "HgN/A
5:00 PM63 °FPartly sunny.20 mph83%29.95 "HgN/A
4:30 PM66 °FPartly sunny.18 mph78%29.95 "HgN/A
4:00 PM66 °FPartly sunny.16 mph83%29.95 "HgN/A
3:30 PM64 °FPartly sunny.15 mph88%29.95 "HgN/A
3:00 PM66 °FPartly sunny.16 mph88%29.92 "HgN/A
Weather by CustomWeather, © 2016

See weather overviewHow to use our weather pages